Flag for Egypt Weather past 2 weeks in Port Said, Egypt

Now
84 °F

Clear.


Feels Like: 98 °F
Forecast: 82 / 90 °F
Wind: 15 mph from Northwest

Location: Port Said Airport

Current Time: Aug 3, 2015 at 7:57:09 PM

Latest Report: Aug 3, 2015 at 7:00 PM


Visibility: 10 mi

Pressure: 29.77 "Hg

Humidity: 89%

Dew point: 81 °F

Location of Port SaidLocation

Historic Weather in Port Said — Graph

°F

Port Said temperature yesterday

Maximum temperature yesterday: 88 °F (at 10:00 AM)
Minimum temperature yesterday: 81 °F (at 12:00 AM)
Average temperature yesterday: 84 °F

Past Weeks' High & Low Weather Summary

 TemperatureHumidityPressure
High91 °F (Jul 23, 12:00 PM)94% (Jul 20, 6:00 AM)29.86 "Hg (Jul 20, 6:00 AM)
Low77 °F (Jul 20, 6:00 AM)38% (Jul 23, 12:00 PM)29.68 "Hg (Jul 20, 3:00 AM)
Average83 °F75%29.75 "Hg
* Reported Jul 19 6:00 PM — Aug 3 6:00 PM, Port Said, Weather by CustomWeather, © 2015

Note: Actual official high and low records may vary slightly from our data, if they occured in-between our weather recording intervals... More about our weather records

Advertising

Port Said weather history for previous 24 hours

 ConditionsComfort  
Time TempWeatherWind HumidityBarometerVisibility
6:00 PM
Mon, Aug 3
86 °FSunny.15 mph79%29.77 "Hg10 mi
5:00 PM86 °FSunny.16 mph79%29.77 "Hg10 mi
4:00 PM88 °FSunny.15 mph89%29.77 "Hg10 mi
3:00 PM88 °FSunny.12 mph75%29.77 "Hg10 mi
2:00 PM88 °FSunny.14 mph75%29.77 "Hg10 mi
1:00 PM88 °FScattered clouds.9 mph75%29.77 "HgN/A
12:00 PM88 °FScattered clouds.8 mph75%29.80 "HgN/A
11:00 AM88 °FPassing clouds.8 mph75%29.80 "HgN/A
10:00 AM86 °FSunny.10 mph79%29.80 "Hg10 mi
9:00 AM86 °FSunny.7 mph79%29.80 "Hg10 mi
8:00 AM84 °FSunny.6 mph84%29.77 "Hg10 mi
7:00 AM84 °FSunny.6 mph84%29.77 "Hg10 mi
6:00 AM82 °FSunny.8 mph89%29.77 "Hg10 mi
5:00 AM82 °FClear.8 mph89%29.77 "Hg10 mi
4:00 AM82 °FClear.9 mph89%29.77 "Hg10 mi
3:00 AM82 °FClear.10 mph89%29.77 "Hg10 mi
2:00 AM82 °FClear.12 mph89%29.77 "Hg10 mi
1:00 AM82 °FClear.12 mph89%29.77 "Hg10 mi
12:00 AM82 °FPassing clouds.9 mph89%29.80 "HgN/A
11:00 PM
Sun, Aug 2
82 °FPassing clouds.12 mph89%29.80 "HgN/A
10:00 PM84 °FPassing clouds.9 mph84%29.80 "HgN/A
9:00 PM84 °FPassing clouds.12 mph89%29.80 "HgN/A
8:00 PM84 °FPassing clouds.14 mph89%29.77 "HgN/A
7:00 PM84 °FPassing clouds.14 mph89%29.77 "HgN/A
Weather by CustomWeather, © 2015

See weather overviewHow to use our weather pages